TimeCST,TemperatureF,Dew PointF,Humidity,Sea Level PressureIn,VisibilityMPH,Wind Direction,Wind SpeedMPH,Gust SpeedMPH,PrecipitationIn,Events,Conditions,WindDirDegrees,DateUTC
12:56 AM,-9999,-9999,N/A,-9999,-9999.0,North,-9999.0,-,N/A,,Unknown,0,2014-01-25 06:56:00
1:56 AM,-9999,-9999,N/A,-9999,-9999.0,North,-9999.0,-,N/A,,Unknown,0,2014-01-25 07:56:00
2:56 AM,-9999,-9999,N/A,-9999,-9999.0,North,-9999.0,-,N/A,,Unknown,0,2014-01-25 08:56:00
3:56 AM,-9999,-9999,N/A,-9999,-9999.0,North,-9999.0,-,N/A,,Unknown,0,2014-01-25 09:56:00
4:56 AM,-9999,-9999,N/A,-9999,-9999.0,North,-9999.0,-,N/A,,Unknown,0,2014-01-25 10:56:00
5:56 AM,-9999,-9999,N/A,-9999,-9999.0,North,-9999.0,-,N/A,,Unknown,0,2014-01-25 11:56:00
6:56 AM,32.0,8.6,38,29.93,10.0,WSW,21.9,-,N/A,,Overcast,240,2014-01-25 12:56:00
7:56 AM,32.0,8.6,38,29.93,10.0,WSW,17.3,-,N/A,,Overcast,240,2014-01-25 13:56:00
8:56 AM,32.0,10.4,41,29.94,10.0,WSW,13.8,-,N/A,,Overcast,240,2014-01-25 14:56:00
9:56 AM,32.0,10.4,41,29.94,10.0,WSW,15.0,-,N/A,,Overcast,240,2014-01-25 15:56:00
10:56 AM,35.6,10.4,35,29.90,10.0,WSW,19.6,-,N/A,,Overcast,240,2014-01-25 16:56:00
11:56 AM,35.6,12.2,38,29.87,10.0,WSW,16.1,-,N/A,,Overcast,240,2014-01-25 17:56:00
12:56 PM,37.4,12.2,36,29.87,10.0,WNW,11.5,-,N/A,,Overcast,300,2014-01-25 18:56:00
1:56 PM,42.8,17.6,36,29.84,10.0,WNW,11.5,-,N/A,,Scattered Clouds,300,2014-01-25 19:56:00
2:56 PM,44.6,21.2,39,29.84,10.0,West,13.8,-,N/A,,Clear,280,2014-01-25 20:56:00
3:56 PM,46.4,21.2,37,29.85,10.0,WNW,16.1,-,N/A,,Mostly Cloudy,290,2014-01-25 21:56:00
4:56 PM,46.4,21.2,37,29.88,10.0,WNW,19.6,-,N/A,,Mostly Cloudy,300,2014-01-25 22:56:00
5:56 PM,44.6,23.0,43,29.90,10.0,WNW,15.0,-,N/A,,Mostly Cloudy,300,2014-01-25 23:56:00
6:56 PM,44.6,23.0,43,29.98,10.0,WNW,9.2,-,N/A,,Scattered Clouds,300,2014-01-26 00:56:00
7:56 PM,-9999,-9999,N/A,-9999,-9999.0,North,-9999.0,-,N/A,,Unknown,0,2014-01-26 01:56:00
8:56 PM,-9999,-9999,N/A,-9999,-9999.0,North,-9999.0,-,N/A,,Unknown,0,2014-01-26 02:56:00
9:56 PM,-9999,-9999,N/A,-9999,-9999.0,North,-9999.0,-,N/A,,Unknown,0,2014-01-26 03:56:00
10:56 PM,-9999,-9999,N/A,-9999,-9999.0,North,-9999.0,-,N/A,,Unknown,0,2014-01-26 04:56:00
11:56 PM,-9999,-9999,N/A,-9999,-9999.0,North,-9999.0,-,N/A,,Unknown,0,2014-01-26 05:56:00